Hourly Data Report for June 20, 2021

KUGAARUK CLIMATE
NUNAVUT
Current Station Operator: ECCC - MSC

68°32'15.060" N
89°47'47.020" W
15.80 m
2303094
71407
NBB

Download Data

Hourly Data (June 2021)
Hourly Data Report for June 20, 2021
TIME
LST
Temp Definition
°C
Dew Point Definition
°C
Rel Hum Definition
%
Precip. Amount Definition
mm

Wind Dir Definition
10's deg

Wind Spd Definition
km/h
Visibility Definition
km
Stn Press Definition
kPa
Hmdx Definition


Wind Chill Definition


Weather Definition


00:00 -0.4 -1.1 95 0.0 3 21   100.78   -6 LegendNANA
01:00 -0.5 -1.1 96 0.0 2 18   100.78   -6 LegendNANA
02:00 -0.5 -1.0 96 0.0 1 12   100.78   -4 LegendNANA
03:00 -0.3 -1.2 94 0.0 4 12   100.78   -4 LegendNANA
04:00 0.0 -0.8 94 0.0 3 12   100.79   -4 LegendNANA
05:00 0.3 -1.0 91 0.0 4 11   100.79     LegendNANA
06:00 0.7 -1.1 87 0.0 3 10   100.79     LegendNANA
07:00 1.2 -0.5 88 0.0 2 10   100.78     LegendNANA
08:00 1.9 -0.2 86 0.0 5 14   100.77     LegendNANA
09:00 2.2 0.0 86 0.0 2 22   100.74     LegendNANA
10:00 2.6 0.5 86 0.0 2 17   100.74     LegendNANA
11:00 3.6 1.0 83 0.0 36 14   100.75     LegendNANA
12:00 3.9 1.4 84 0.0 1 23   100.72     LegendNANA
13:00 4.0 1.1 81 0.0 1 20   100.72     LegendNANA
14:00 4.2 1.1 81 0.0 1 24   100.73     LegendNANA
15:00 4.7 1.1 77 0.0 1 24   100.72     LegendNANA
16:00 4.5 1.2 79 0.0 2 25   100.71     LegendNANA
17:00 4.2 1.2 81 0.0 1 25   100.69     LegendNANA
18:00 4.2 0.8 79 0.0 1 23   100.72     LegendNANA
19:00 3.1 0.3 82 0.0 1 24   100.69     LegendNANA
20:00 2.5 0.0 84 0.0 3 14   100.70     LegendNANA
21:00 1.9 -0.3 85 0.0 6 8   100.67     LegendNANA
22:00 1.5 0.1 90 0.0 2 12   100.64     LegendNANA
23:00 1.2 0.0 91 0.0 9 9   100.62     LegendNANA

Notes on Data Quality.

Legend

  • E = Estimated
  • M = Missing
  • NA = Not Available*
  • [empty] = Indicates an unobserved value
Date modified: